Time,TemperatureF,DewpointF,PressureIn,WindDirection,WindDirectionDegrees,WindSpeedMPH,WindSpeedGustMPH,Humidity,HourlyPrecipIn,Conditions,Clouds,dailyrainin,SoftwareType,DateUTC
2013-02-16 00:13:00,7.9,4.0,30.33,NW,305,0.0,1.0,85,0.00,,,0.00,weatherlink.com 1.10,2013-02-16 06:13:00,
2013-02-16 00:28:00,7.8,4.0,30.33,NW,305,0.0,1.0,85,0.00,,,0.00,weatherlink.com 1.10,2013-02-16 06:28:00,
2013-02-16 00:43:00,7.6,4.0,30.33,NW,305,0.0,0.0,85,0.00,,,0.00,weatherlink.com 1.10,2013-02-16 06:43:00,
2013-02-16 00:58:00,7.3,4.0,30.33,NW,305,0.0,0.0,86,0.00,,,0.00,weatherlink.com 1.10,2013-02-16 06:58:00,
2013-02-16 01:14:00,7.1,4.0,30.33,NW,305,0.0,0.0,86,0.00,,,0.00,weatherlink.com 1.10,2013-02-16 07:14:00,
2013-02-16 01:28:00,6.9,4.0,30.33,NW,305,0.0,0.0,87,0.00,,,0.00,weatherlink.com 1.10,2013-02-16 07:28:00,
2013-02-16 01:44:00,6.7,4.0,30.32,NW,305,0.0,0.0,87,0.00,,,0.00,weatherlink.com 1.10,2013-02-16 07:44:00,
2013-02-16 01:58:00,6.5,4.0,30.32,NW,305,0.0,0.0,87,0.00,,,0.00,weatherlink.com 1.10,2013-02-16 07:58:00,
2013-02-16 02:13:00,6.2,3.0,30.32,NW,305,0.0,0.0,87,0.00,,,0.00,weatherlink.com 1.10,2013-02-16 08:13:00,
2013-02-16 02:29:00,6.0,3.0,30.31,NW,305,0.0,0.0,88,0.00,,,0.00,weatherlink.com 1.10,2013-02-16 08:29:00,
2013-02-16 02:43:00,5.8,3.0,30.31,NW,305,0.0,0.0,87,0.00,,,0.00,weatherlink.com 1.10,2013-02-16 08:43:00,
2013-02-16 02:58:00,5.5,3.0,30.31,NW,305,0.0,0.0,88,0.00,,,0.00,weatherlink.com 1.10,2013-02-16 08:58:00,
2013-02-16 03:14:00,5.5,3.0,30.30,NW,305,0.0,0.0,88,0.00,,,0.00,weatherlink.com 1.10,2013-02-16 09:14:00,
2013-02-16 03:29:00,5.5,3.0,30.30,NW,305,0.0,0.0,89,0.00,,,0.00,weatherlink.com 1.10,2013-02-16 09:29:00,
2013-02-16 03:43:00,5.6,3.0,30.30,NW,305,0.0,0.0,89,0.00,,,0.00,weatherlink.com 1.10,2013-02-16 09:43:00,
2013-02-16 03:58:00,5.6,3.0,30.30,NW,305,0.0,0.0,88,0.00,,,0.00,weatherlink.com 1.10,2013-02-16 09:58:00,
2013-02-16 04:14:00,5.5,3.0,30.30,NW,305,0.0,1.0,88,0.00,,,0.00,weatherlink.com 1.10,2013-02-16 10:14:00,
2013-02-16 04:28:00,5.6,3.0,30.30,NW,305,0.0,0.0,89,0.00,,,0.00,weatherlink.com 1.10,2013-02-16 10:28:00,
2013-02-16 04:44:00,5.7,3.0,30.30,NW,305,0.0,0.0,88,0.00,,,0.00,weatherlink.com 1.10,2013-02-16 10:44:00,
2013-02-16 04:59:00,5.6,3.0,30.30,NW,305,0.0,0.0,88,0.00,,,0.00,weatherlink.com 1.10,2013-02-16 10:59:00,
2013-02-16 05:14:00,5.5,3.0,30.30,NW,305,0.0,0.0,88,0.00,,,0.00,weatherlink.com 1.10,2013-02-16 11:14:00,
2013-02-16 05:29:00,5.5,3.0,30.30,NW,305,0.0,0.0,87,0.00,,,0.00,weatherlink.com 1.10,2013-02-16 11:29:00,
2013-02-16 05:44:00,5.3,2.0,30.29,NW,305,0.0,0.0,87,0.00,,,0.00,weatherlink.com 1.10,2013-02-16 11:44:00,
2013-02-16 05:59:00,5.1,2.0,30.29,NW,305,0.0,0.0,87,0.00,,,0.00,weatherlink.com 1.10,2013-02-16 11:59:00,
2013-02-16 06:14:00,4.9,2.0,30.29,NW,305,0.0,0.0,87,0.00,,,0.00,weatherlink.com 1.10,2013-02-16 12:14:00,
2013-02-16 06:29:00,4.6,2.0,30.29,NW,305,0.0,0.0,87,0.00,,,0.00,weatherlink.com 1.10,2013-02-16 12:29:00,
2013-02-16 06:44:00,4.0,1.0,30.29,NW,305,0.0,1.0,87,0.00,,,0.00,weatherlink.com 1.10,2013-02-16 12:44:00,
2013-02-16 06:59:00,3.5,1.0,30.29,NW,305,0.0,0.0,87,0.00,,,0.00,weatherlink.com 1.10,2013-02-16 12:59:00,
2013-02-16 07:14:00,2.9,0.0,30.29,NW,305,0.0,0.0,87,0.00,,,0.00,weatherlink.com 1.10,2013-02-16 13:14:00,
2013-02-16 07:29:00,2.4,0.0,30.29,NW,305,0.0,0.0,88,0.00,,,0.00,weatherlink.com 1.10,2013-02-16 13:29:00,
2013-02-16 07:44:00,2.2,-1.0,30.30,NW,305,0.0,0.0,88,0.00,,,0.00,weatherlink.com 1.10,2013-02-16 13:44:00,
2013-02-16 07:59:00,2.3,0.0,30.30,NW,305,0.0,0.0,88,0.00,,,0.00,weatherlink.com 1.10,2013-02-16 13:59:00,
2013-02-16 08:14:00,2.7,0.0,30.29,NW,305,0.0,0.0,87,0.00,,,0.00,weatherlink.com 1.10,2013-02-16 14:14:00,
2013-02-16 08:29:00,3.1,0.0,30.29,NW,305,0.0,1.0,87,0.00,,,0.00,weatherlink.com 1.10,2013-02-16 14:29:00,
2013-02-16 08:45:00,4.2,1.0,30.29,NW,305,0.0,0.0,87,0.00,,,0.00,weatherlink.com 1.10,2013-02-16 14:45:00,
2013-02-16 08:59:00,5.0,1.0,30.29,NW,305,0.0,1.0,83,0.00,,,0.00,weatherlink.com 1.10,2013-02-16 14:59:00,
2013-02-16 09:14:00,5.8,2.0,30.29,NW,305,0.0,2.0,83,0.00,,,0.00,weatherlink.com 1.10,2013-02-16 15:14:00,
2013-02-16 09:29:00,7.3,3.0,30.29,WNW,284,1.0,2.0,81,0.00,,,0.00,weatherlink.com 1.10,2013-02-16 15:29:00,
2013-02-16 09:44:00,7.4,2.0,30.29,WNW,284,1.0,2.0,79,0.00,,,0.00,weatherlink.com 1.10,2013-02-16 15:44:00,
2013-02-16 09:59:00,7.5,3.0,30.29,WNW,284,0.0,1.0,80,0.00,,,0.00,weatherlink.com 1.10,2013-02-16 15:59:00,
2013-02-16 10:15:00,9.0,3.0,30.29,South,180,2.0,3.0,77,0.00,,,0.00,weatherlink.com 1.10,2013-02-16 16:15:00,
2013-02-16 10:30:00,9.6,4.0,30.29,South,180,2.0,2.0,76,0.00,,,0.00,weatherlink.com 1.10,2013-02-16 16:30:00,
2013-02-16 10:45:00,10.0,3.0,30.29,South,180,1.0,2.0,74,0.00,,,0.00,weatherlink.com 1.10,2013-02-16 16:45:00,
2013-02-16 11:00:00,10.7,4.0,30.29,South,173,1.0,4.0,73,0.00,,,0.00,weatherlink.com 1.10,2013-02-16 17:00:00,
2013-02-16 11:15:00,10.9,4.0,30.29,SSW,198,1.0,3.0,72,0.00,,,0.00,weatherlink.com 1.10,2013-02-16 17:15:00,
2013-02-16 11:30:00,11.4,4.0,30.28,SW,219,1.0,4.0,71,0.00,,,0.00,weatherlink.com 1.10,2013-02-16 17:30:00,
2013-02-16 11:45:00,11.7,4.0,30.28,SW,221,1.0,4.0,70,0.00,,,0.00,weatherlink.com 1.10,2013-02-16 17:45:00,
2013-02-16 12:00:00,12.5,4.0,30.27,SW,223,1.0,3.0,69,0.00,,,0.00,weatherlink.com 1.10,2013-02-16 18:00:00,
2013-02-16 12:15:00,12.8,4.0,30.27,SW,225,0.0,3.0,67,0.00,,,0.00,weatherlink.com 1.10,2013-02-16 18:15:00,
2013-02-16 12:30:00,14.3,4.0,30.26,SSW,201,1.0,3.0,65,0.00,,,0.00,weatherlink.com 1.10,2013-02-16 18:30:00,
2013-02-16 12:45:00,14.1,4.0,30.26,SSE,167,1.0,4.0,65,0.00,,,0.00,weatherlink.com 1.10,2013-02-16 18:45:00,
2013-02-16 13:00:00,14.5,4.0,30.25,South,186,1.0,4.0,63,0.00,,,0.00,weatherlink.com 1.10,2013-02-16 19:00:00,
2013-02-16 13:15:00,14.9,4.0,30.25,SSE,154,1.0,4.0,63,0.00,,,0.00,weatherlink.com 1.10,2013-02-16 19:15:00,
2013-02-16 13:31:00,15.2,5.0,30.26,SSE,154,1.0,4.0,63,0.00,,,0.00,weatherlink.com 1.10,2013-02-16 19:31:00,
2013-02-16 13:46:00,15.4,5.0,30.25,SE,141,1.0,3.0,64,0.00,,,0.00,weatherlink.com 1.10,2013-02-16 19:46:00,
2013-02-16 14:01:00,15.4,4.0,30.24,SSW,195,0.0,2.0,62,0.00,,,0.00,weatherlink.com 1.10,2013-02-16 20:01:00,
2013-02-16 14:16:00,15.3,4.0,30.24,SSW,205,1.0,3.0,60,0.00,,,0.00,weatherlink.com 1.10,2013-02-16 20:16:00,
2013-02-16 14:31:00,15.2,4.0,30.23,SE,136,1.0,3.0,60,0.00,,,0.00,weatherlink.com 1.10,2013-02-16 20:31:00,
2013-02-16 14:46:00,16.3,4.0,30.24,South,186,1.0,3.0,59,0.00,,,0.00,weatherlink.com 1.10,2013-02-16 20:46:00,
2013-02-16 15:01:00,16.8,5.0,30.23,South,175,2.0,3.0,59,0.00,,,0.00,weatherlink.com 1.10,2013-02-16 21:01:00,
2013-02-16 15:16:00,16.4,5.0,30.23,SSW,213,1.0,4.0,61,0.00,,,0.00,weatherlink.com 1.10,2013-02-16 21:16:00,
2013-02-16 15:31:00,16.8,5.0,30.23,SSW,213,0.0,2.0,59,0.00,,,0.00,weatherlink.com 1.10,2013-02-16 21:31:00,
2013-02-16 15:47:00,17.4,5.0,30.23,SSW,213,0.0,2.0,58,0.00,,,0.00,weatherlink.com 1.10,2013-02-16 21:47:00,
2013-02-16 16:01:00,17.2,4.0,30.22,SSW,213,1.0,2.0,57,0.00,,,0.00,weatherlink.com 1.10,2013-02-16 22:01:00,
2013-02-16 16:16:00,16.7,4.0,30.22,SE,136,2.0,3.0,58,0.00,,,0.00,weatherlink.com 1.10,2013-02-16 22:16:00,
2013-02-16 16:32:00,15.5,4.0,30.22,SE,136,0.0,1.0,60,0.00,,,0.00,weatherlink.com 1.10,2013-02-16 22:32:00,
2013-02-16 16:46:00,14.8,3.0,30.21,SE,136,0.0,2.0,61,0.00,,,0.00,weatherlink.com 1.10,2013-02-16 22:46:00,
2013-02-16 17:02:00,13.4,3.0,30.21,SE,136,0.0,1.0,63,0.00,,,0.00,weatherlink.com 1.10,2013-02-16 23:02:00,
2013-02-16 17:17:00,12.7,3.0,30.22,SE,136,0.0,0.0,64,0.00,,,0.00,weatherlink.com 1.10,2013-02-16 23:17:00,
2013-02-16 17:32:00,12.3,3.0,30.22,SE,136,0.0,0.0,67,0.00,,,0.00,weatherlink.com 1.10,2013-02-16 23:32:00,
2013-02-16 17:47:00,11.4,4.0,30.22,SE,136,0.0,0.0,72,0.00,,,0.00,weatherlink.com 1.10,2013-02-16 23:47:00,
2013-02-16 18:02:00,10.0,3.0,30.22,SE,136,0.0,0.0,74,0.00,,,0.00,weatherlink.com 1.10,2013-02-17 00:02:00,
2013-02-16 18:17:00,8.5,2.0,30.23,SE,136,0.0,1.0,76,0.00,,,0.00,weatherlink.com 1.10,2013-02-17 00:17:00,
2013-02-16 18:32:00,7.3,2.0,30.23,SE,136,0.0,1.0,78,0.00,,,0.00,weatherlink.com 1.10,2013-02-17 00:32:00,
2013-02-16 18:47:00,6.3,1.0,30.23,SE,136,0.0,1.0,79,0.00,,,0.00,weatherlink.com 1.10,2013-02-17 00:47:00,
2013-02-16 19:02:00,5.5,1.0,30.23,SE,136,0.0,1.0,80,0.00,,,0.00,weatherlink.com 1.10,2013-02-17 01:02:00,
2013-02-16 19:17:00,4.8,0.0,30.23,SE,136,0.0,1.0,81,0.00,,,0.00,weatherlink.com 1.10,2013-02-17 01:17:00,
2013-02-16 19:32:00,3.9,0.0,30.23,SE,136,0.0,0.0,82,0.00,,,0.00,weatherlink.com 1.10,2013-02-17 01:32:00,
2013-02-16 19:47:00,3.2,-1.0,30.22,SE,136,0.0,0.0,83,0.00,,,0.00,weatherlink.com 1.10,2013-02-17 01:47:00,
2013-02-16 20:03:00,2.7,-1.0,30.23,SE,136,0.0,1.0,84,0.00,,,0.00,weatherlink.com 1.10,2013-02-17 02:03:00,
2013-02-16 20:18:00,2.4,-1.0,30.22,SE,136,0.0,1.0,84,0.00,,,0.00,weatherlink.com 1.10,2013-02-17 02:18:00,
2013-02-16 20:33:00,2.0,-2.0,30.22,SE,136,0.0,0.0,85,0.00,,,0.00,weatherlink.com 1.10,2013-02-17 02:33:00,
2013-02-16 20:48:00,1.5,-2.0,30.21,SE,136,0.0,0.0,85,0.00,,,0.00,weatherlink.com 1.10,2013-02-17 02:48:00,
2013-02-16 21:03:00,1.2,-2.0,30.21,SE,136,0.0,1.0,85,0.00,,,0.00,weatherlink.com 1.10,2013-02-17 03:03:00,
2013-02-16 21:18:00,0.8,-3.0,30.21,SE,136,0.0,1.0,85,0.00,,,0.00,weatherlink.com 1.10,2013-02-17 03:18:00,
2013-02-16 21:33:00,0.7,-2.0,30.21,SE,136,0.0,1.0,87,0.00,,,0.00,weatherlink.com 1.10,2013-02-17 03:33:00,
2013-02-16 21:48:00,0.6,-2.0,30.21,SE,136,0.0,0.0,87,0.00,,,0.00,weatherlink.com 1.10,2013-02-17 03:48:00,
2013-02-16 22:03:00,0.5,-3.0,30.20,SE,136,0.0,1.0,87,0.00,,,0.00,weatherlink.com 1.10,2013-02-17 04:03:00,
2013-02-16 22:18:00,0.0,-3.0,30.20,SE,136,0.0,1.0,87,0.00,,,0.00,weatherlink.com 1.10,2013-02-17 04:18:00,
2013-02-16 22:33:00,-0.3,-3.0,30.20,SE,136,0.0,1.0,87,0.00,,,0.00,weatherlink.com 1.10,2013-02-17 04:33:00,
2013-02-16 22:48:00,-0.6,-4.0,30.20,SE,136,0.0,1.0,87,0.00,,,0.00,weatherlink.com 1.10,2013-02-17 04:48:00,
2013-02-16 23:03:00,-0.9,-4.0,30.19,SE,136,0.0,0.0,87,0.00,,,0.00,weatherlink.com 1.10,2013-02-17 05:03:00,
2013-02-16 23:18:00,-0.6,-3.0,30.19,SE,136,0.0,0.0,88,0.00,,,0.00,weatherlink.com 1.10,2013-02-17 05:18:00,
2013-02-16 23:33:00,-0.6,-3.0,30.19,SE,136,0.0,0.0,88,0.00,,,0.00,weatherlink.com 1.10,2013-02-17 05:33:00,
2013-02-16 23:49:00,-0.2,-3.0,30.18,SE,136,0.0,0.0,89,0.00,,,0.00,weatherlink.com 1.10,2013-02-17 05:49:00,